{"data":{"norad_id":65532,"intl_designator":"2025-200N","name":"STARLINK-35170","alt_names":[],"object_type":"PAYLOAD","status":"ACTIVE","operator":null,"country":"US","launch_date":"2025-09-06","launch_site_code":"AFWTR","launch_vehicle":null,"mission":null,"orbit_class":"UNKNOWN","rcs_meters":null,"size_class":null,"mass_kg":null,"dimensions":null,"purposes":["comms"],"wikipedia_slug":null,"has_3d_model":false,"image_url":null,"decayed_at":null,"tle_current":{"epoch":"2026-09-20T10:21:55.135296Z","epoch_age_seconds":117888,"freshness":"FRESH","line1":"1 65532U 25200N   26263.43188814  .00019818  00000+0  61410-3 0  9997","line2":"2 65532  97.2871 329.8648 0002129  96.5971 263.5514 15.33468866 58636","mean_motion":15.33468866,"eccentricity":0.0002129,"inclination_deg":97.2871,"raan_deg":329.8648,"arg_perigee_deg":96.5971,"mean_anomaly_deg":263.5514,"bstar":0.0006141,"rev_number":5863,"period_min":93.904743156357,"perigee_km":464.01516258259,"apogee_km":466.92917136588,"semimajor_km":6843.6091669742,"source":"CELESTRAK","updated_at":"2026-09-21T09:00:35.650054Z"}}}